Home   Weather   Meissen   Past weeks

Flag for Germany Past Weather in Meissen, Saxony, Germany — Yesterday and Last 2 Weeks

Now
57 °F

Clear.


Feels Like: 57 °F
Forecast: 51 / 71 °F
Wind: 5 mph from Southeast

Location: Dresden-Klotzsche

Current Time: Sep 25, 2016 at 10:54:25 PM

Latest Report: Sep 25, 2016 at 10:20 PM


Visibility: 10 mi

Pressure: 30.15 "Hg

Humidity: 77%

Dew Point: 50 °F

Location of MeissenLocation

Past Weather in Meissen — Graph

°F

Meissen Temperature Yesterday

Maximum temperature yesterday: 68 °F (at 3:50 PM)
Minimum temperature yesterday: 50 °F (at 3:20 AM)
Average temperature yesterday: 58 °F

High & Low Weather Summary for the Past Weeks

 TemperatureHumidityPressure
High86 °F (Sep 12, 1:50 PM)100% (Sep 12, 4:50 AM)30.33 "Hg (Sep 12, 4:50 AM)
Low43 °F (Sep 22, 5:20 AM)29% (Sep 12, 1:50 PM)29.83 "Hg (Sep 17, 3:50 AM)
Average63 °F72%30.06 "Hg
* Reported Sep 10 9:20 PM — Sep 25 9:20 PM, Meissen, Weather by CustomWeather, © 2016

Note: Actual official high and low records may vary slightly from our data, if they occured in-between our weather recording intervals... More about our weather records

Advertising

Meissen Weather History for the Previous 24 Hours

Scroll right to see more
 ConditionsComfort  
Time TempWeatherWind HumidityBarometerVisibility
9:20 PM
Sun, Sep 25
57 °FClear.5 mph77%30.12 "Hg10 mi
8:50 PM57 °FClear.6 mph77%30.12 "Hg10 mi
8:20 PM61 °FPassing clouds.5 mph59%30.12 "HgN/A
7:50 PM61 °FClear.6 mph63%30.12 "Hg10 mi
7:20 PM63 °FClear.3 mph59%30.12 "Hg10 mi
6:50 PM64 °FPassing clouds.3 mph56%30.12 "HgN/A
6:20 PM66 °FSunny.5 mph49%30.12 "Hg10 mi
5:50 PM68 °FPassing clouds.6 mph46%30.12 "HgN/A
5:20 PM68 °FPassing clouds.5 mph46%30.12 "HgN/A
4:50 PM70 °FPassing clouds.6 mph43%30.12 "HgN/A
4:20 PM70 °FPassing clouds.7 mph40%30.12 "HgN/A
3:50 PM70 °FPassing clouds.5 mph40%30.12 "HgN/A
3:20 PM70 °FPassing clouds.8 mph40%30.12 "HgN/A
2:50 PM70 °FPassing clouds.7 mph43%30.15 "HgN/A
2:20 PM70 °FPassing clouds.6 mph46%30.15 "HgN/A
1:50 PM68 °FPassing clouds.6 mph56%30.15 "HgN/A
1:20 PM68 °FPassing clouds.5 mph56%30.15 "HgN/A
12:50 PM68 °FPassing clouds.6 mph56%30.18 "HgN/A
12:20 PM66 °FPassing clouds.6 mph64%30.18 "HgN/A
11:50 AM64 °FPassing clouds.6 mph68%30.18 "HgN/A
11:20 AM64 °FSunny.8 mph68%30.18 "Hg10 mi
10:50 AM63 °FSunny.8 mph73%30.18 "Hg10 mi
10:20 AM63 °FSunny.8 mph73%30.21 "Hg10 mi
9:50 AM59 °FSunny.7 mph82%30.21 "Hg10 mi
9:20 AM55 °FSunny.7 mph94%30.21 "Hg10 mi
8:50 AM54 °FSunny.5 mph94%30.21 "Hg10 mi
8:20 AM50 °FSunny.2 mph100%30.21 "Hg10 mi
7:50 AM48 °FSunny.2 mph100%30.21 "Hg10 mi
7:20 AM48 °FSunny.2 mph100%30.21 "Hg10 mi
6:50 AM48 °FClear.6 mph100%30.21 "Hg10 mi
6:20 AM48 °FPassing clouds.6 mph100%30.21 "HgN/A
5:50 AM48 °FClear.5 mph100%30.21 "Hg6 mi
5:20 AM48 °FLight fog.3 mph100%30.21 "Hg5 mi
4:50 AM48 °FLight fog.3 mph100%30.21 "Hg6 mi
4:20 AM48 °FClear.5 mph100%30.21 "Hg10 mi
3:50 AM48 °FClear.2 mph100%30.21 "Hg10 mi
3:20 AM50 °FClear.2 mph100%30.24 "Hg10 mi
2:50 AM50 °FClear.2 mph100%30.24 "Hg10 mi
2:20 AM50 °FClear.2 mph100%30.24 "Hg10 mi
1:50 AM52 °FClear.2 mph94%30.24 "Hg10 mi
1:20 AM52 °FClear.1 mph94%30.24 "Hg10 mi
12:50 AM52 °FPassing clouds.3 mph88%30.24 "HgN/A
12:20 AM54 °FClear.2 mph94%30.24 "Hg10 mi
11:50 PM
Sat, Sep 24
54 °FClear.3 mph88%30.24 "Hg10 mi
11:20 PM54 °FClear.1 mph94%30.24 "Hg10 mi
10:50 PM54 °FClear.2 mph88%30.24 "Hg10 mi
10:20 PM57 °FClear.3 mph77%30.24 "Hg10 mi
Weather by CustomWeather, © 2016

See weather overviewHow to use our weather pages